[[{"header":{"parameterUnit":"m.s-1","parameterCategory":1,"la1":30.2991,"la2":30.254,"lo1":-89.0895,"lo2":-89.0444,"dy":0.0017,"dx":0.0017,"nx":28,"ny":28,"refTime":"2025-04-13T09:00:00:Z","depth":0,"parameterNumber":2,"parameterNumberName":"U-component_of_WINDS"},"data":[0,0,0,0,0,0,0,0,0,0,0,0,0,0,0,0,0,0,0,0,0,0,0,0,0,0,0,0,0,0,0,0,0,0,0,0,0,0,0,0,0,0,0,0,0,0,0,0,0,0,0,0,0,0,0,0,0,0,4.3949,4.395,0,4.4004,4.4005,4.4005,4.3947,4.3945,4.3943,4.3941,4.3994,4.3998,4.4001,0,0,0,0,0,0,0,0,0,0,0,0,0,4.3792,4.3795,4.3949,4.395,4.395,4.4004,4.4005,4.4005,4.3948,4.3945,4.3942,4.394,4.3993,4.3997,4.4002,0,0,0,0,0,0,0,0,0,0,0,0,0,4.3855,4.3796,4.3949,4.3928,4.3927,4.4004,4.4005,4.4005,4.3948,4.3945,4.3941,4.3938,4.3992,4.3997,4.4002,4.4101,0,0,4.4018,4.402,0,0,0,0,0,0,0,0,4.3851,4.3861,4.393,4.393,4.3928,4.3965,4.3969,4.4038,4.3949,4.394,4.3941,4.3937,4.3987,4.3993,4.401,4.4104,4.4106,4.4019,4.4022,4.4024,4.4026,0,0,0,0,0,0,0,4.3847,4.3858,4.3971,4.3931,4.393,4.3915,4.392,4.3982,4.3982,4.394,4.3936,4.3944,4.3986,4.4005,4.4011,4.4107,4.4019,4.4023,4.4026,4.4028,4.4285,4.4288,0,0,0,0,0,0,4.3845,4.3855,4.3969,4.3972,4.3881,4.3921,4.3927,4.3957,4.3981,4.3981,4.3947,4.3941,4.3998,4.4005,4.4013,4.413,4.4024,4.4029,4.4032,4.4281,4.4285,4.4289,0,0,0,0,0,0,4.3842,4.3856,4.3967,4.3912,4.3925,4.3927,4.3961,4.396,4.3979,4.3985,4.3985,4.3966,4.3996,4.4005,4.408,4.4131,4.4031,4.4036,4.4277,4.4282,4.4287,4.4365,0,0,0,0,0,0,4.3838,4.3855,4.3893,4.3914,4.3928,4.4034,4.3965,4.3963,4.3988,4.3981,4.4004,4.4004,4.3994,4.4072,4.4085,4.4136,4.404,4.4272,4.4279,4.4286,4.4358,4.4373,4.4385,0,0,0,0,0,4.3832,4.3913,4.3896,4.391,4.3976,4.4037,4.4045,4.4032,4.3993,4.4031,4.4035,4.4004,4.4124,4.4081,4.4094,4.4148,4.4269,4.4277,4.4285,4.4352,4.437,4.4385,0,0,0,0,0,0,4.3897,4.3915,4.3896,4.3985,4.401,4.4027,4.4074,4.4051,4.4087,4.4079,4.406,4.4066,4.4145,4.4154,4.4105,4.4245,4.419,4.4201,4.4236,4.4253,4.4266,4.4261,4.4045,0,0,0,0,0,4.3922,4.397,4.3983,4.406,4.4074,4.4072,4.4098,4.4086,4.411,4.412,4.413,4.4154,4.4197,4.4226,4.4266,4.436,4.4363,4.4404,4.4417,4.4428,4.4438,4.4487,4.4505,4.4316,4.4316,4.4316,0,0,4.3973,4.3989,4.402,4.4074,4.4091,4.4141,4.4081,4.4136,4.4173,4.4128,4.4199,4.4208,4.4233,4.4318,4.4356,4.4328,4.4491,4.4439,4.4448,4.4451,4.4498,4.4516,4.4531,4.4322,4.4321,4.432,0,0,4.4091,4.4109,4.4175,4.4195,4.4223,4.4221,4.4237,4.4258,4.4262,4.4333,4.4301,4.4344,4.4419,4.4438,4.4458,4.4586,4.4558,4.4599,4.4669,4.4718,4.4733,4.4746,4.479,4.4806,4.4609,4.4609,4.461,0,4.4151,4.4225,4.4212,4.427,4.4294,4.4257,4.4324,4.4343,4.4383,4.44,4.4369,4.4462,4.4477,4.4565,4.4597,4.4614,4.4631,4.4596,4.4732,4.4745,4.4757,4.4799,4.4816,4.4614,4.4614,4.4613,4.4613,0,4.4297,4.4349,4.4399,4.4439,4.4469,4.4531,4.4526,4.4558,4.4544,4.4546,4.4619,4.4636,4.4678,4.4699,4.4685,4.4786,4.4767,4.4735,4.4678,4.478,4.4819,4.4835,4.4621,4.4619,4.4618,4.4617,0,0,4.4455,4.4488,4.4507,4.4524,4.4553,4.4593,4.4653,4.4696,4.4723,4.4752,4.4801,4.4867,4.4837,4.4859,4.4848,4.4891,4.4989,4.4853,4.4853,4.4876,4.51,4.5123,4.5141,4.4972,4.4975,4.4978,4.5097,0,4.4573,4.4678,4.4668,4.4768,4.4815,4.4782,4.4835,4.4858,4.4862,4.4902,4.4905,4.4951,4.4909,4.4922,4.4964,4.4969,4.5034,4.496,4.5016,4.5018,4.5009,4.5162,4.5186,4.5298,4.5112,4.5115,4.5117,0,4.4724,4.4759,4.4864,4.4886,4.4906,4.4953,4.4991,4.5031,4.5056,4.5056,4.5082,4.5064,4.5123,4.5068,4.5149,4.5099,4.5122,4.5128,4.5132,4.5135,4.5072,4.5167,4.5333,4.5349,4.5141,4.5139,4.5137,0,4.4827,4.4901,4.4973,4.4989,4.5017,4.5051,4.5064,4.5087,4.5113,4.5147,4.5164,4.5204,4.5225,4.5257,4.5249,4.521,4.5332,4.5276,4.5332,4.5332,4.5357,4.5356,4.5528,4.5376,4.5376,4.5375,4.5375,0,4.4959,4.5023,4.502,4.5064,4.5135,4.5124,4.5194,4.5203,4.5224,4.5268,4.5243,4.5285,4.5273,4.5315,4.531,4.5377,4.5388,4.5388,4.5385,4.5389,4.5389,4.5402,4.5393,4.538,4.5379,4.5378,4.5377,0,4.5085,4.5085,4.5161,4.5182,4.5189,4.5241,4.5258,4.5299,4.5302,4.5358,4.5371,4.5374,4.5422,4.5418,4.5472,4.5468,4.5551,4.5541,4.5543,4.554,4.5596,4.559,4.578,4.5804,4.5639,4.5641,4.5642,0,4.5168,4.5217,4.5244,4.5272,4.5288,4.5334,4.5361,4.5352,4.5382,4.5415,4.5452,4.5498,4.5533,4.5611,4.5618,4.5659,4.5647,4.5711,4.5653,4.5655,4.5646,4.5642,4.5646,4.5722,4.5724,4.5725,4.5727,0,4.5314,4.5312,4.5353,4.5394,4.5428,4.546,4.5488,4.5513,4.5507,4.5541,4.559,4.5618,4.5673,4.5719,4.5758,4.577,4.5747,4.5746,4.576,4.5763,4.5762,4.5762,4.5572,4.574,4.5739,4.5738,4.5737,4.5737,4.542,4.5462,4.5487,4.5534,4.5555,4.5583,4.5623,4.5631,4.5672,4.5716,4.5709,4.5764,4.5788,4.5838,4.5855,4.5897,4.5873,4.5895,4.5901,4.5906,4.5911,4.5758,4.5904,4.5904,4.5903,4.5903,4.5903,0,4.5563,4.5579,4.5622,4.5663,4.57,4.5677,4.5708,4.574,4.5789,4.5814,4.585,4.5907,4.5951,4.5962,4.6004,4.6035,4.6026,4.6046,4.6043,4.6046,4.593,4.5913,4.6053,4.6053,4.6053,4.6053,4.6053,4.6053,4.5642,4.5712,4.5713,4.5793,4.5808,4.5862,4.5881,4.5907,4.5927,4.5991,4.6028,4.6036,4.6055,4.6098,4.6137,4.614,4.6155,4.618,4.6177,4.6069,4.6054,4.6039,4.6022,4.6184,4.6184,4.6289,4.629,4.629]},{"header":{"parameterUnit":"m.s-1","parameterCategory":1,"la1":30.2991,"la2":30.254,"lo1":-89.0895,"lo2":-89.0444,"dy":0.0017,"dx":0.0017,"nx":28,"ny":28,"refTime":"2025-04-13T09:00:00:Z","depth":0,"parameterNumber":3,"parameterNumberName":"V-component_of_WINDS"},"data":[0,0,0,0,0,0,0,0,0,0,0,0,0,0,0,0,0,0,0,0,0,0,0,0,0,0,0,0,0,0,0,0,0,0,0,0,0,0,0,0,0,0,0,0,0,0,0,0,0,0,0,0,0,0,0,0,0,0,3.248,3.2481,0,3.2646,3.2648,3.265,3.2691,3.269,3.2688,3.2687,3.2859,3.2865,3.287,0,0,0,0,0,0,0,0,0,0,0,0,0,3.2198,3.2203,3.2479,3.2482,3.2484,3.2646,3.2648,3.265,3.2691,3.269,3.2688,3.2687,3.2857,3.2864,3.2871,0,0,0,0,0,0,0,0,0,0,0,0,0,3.2338,3.2204,3.2479,3.2523,3.2529,3.2645,3.2648,3.2651,3.2691,3.2689,3.2688,3.2686,3.2855,3.2863,3.2872,3.2956,0,0,3.2897,3.2901,0,0,0,0,0,0,0,0,3.233,3.2348,3.2515,3.2521,3.2527,3.2646,3.2612,3.2753,3.2692,3.263,3.2687,3.2686,3.279,3.2803,3.2838,3.2964,3.2972,3.2898,3.2903,3.2907,3.2909,0,0,0,0,0,0,0,3.232,3.2341,3.2546,3.2517,3.2525,3.2535,3.2553,3.2639,3.2717,3.2635,3.2638,3.2657,3.2793,3.283,3.2843,3.2974,3.2898,3.2905,3.291,3.2914,3.3179,3.3181,0,0,0,0,0,0,3.2302,3.2333,3.254,3.2551,3.2422,3.2542,3.2562,3.2609,3.2716,3.2731,3.2659,3.2659,3.2817,3.2833,3.2849,3.2955,3.2907,3.2915,3.2919,3.3177,3.3179,3.3181,0,0,0,0,0,0,3.2296,3.232,3.2534,3.2443,3.2471,3.2548,3.2601,3.2614,3.2651,3.2734,3.2748,3.2682,3.2816,3.2837,3.2929,3.2962,3.2918,3.2926,3.3174,3.3177,3.318,3.3169,0,0,0,0,0,0,3.2288,3.2318,3.2351,3.2443,3.2475,3.2611,3.2603,3.2618,3.2665,3.2667,3.276,3.2774,3.2816,3.2917,3.2938,3.2973,3.2932,3.3172,3.3176,3.3179,3.3166,3.3171,3.3175,0,0,0,0,0,3.2278,3.2341,3.2352,3.2377,3.2518,3.2613,3.2631,3.2678,3.2668,3.2701,3.2755,3.2771,3.2955,3.2926,3.295,3.2988,3.317,3.3175,3.3179,3.3165,3.317,3.3174,0,0,0,0,0,0,3.2251,3.2354,3.2367,3.2462,3.2528,3.2619,3.2663,3.2682,3.2753,3.2752,3.2807,3.2828,3.2917,3.2962,3.2927,3.3075,3.3062,3.3072,3.3043,3.3049,3.3053,3.304,3.2939,0,0,0,0,0,3.2256,3.2324,3.2411,3.2486,3.2518,3.2585,3.2628,3.2659,3.2729,3.2758,3.2818,3.2886,3.296,3.3007,3.3079,3.3173,3.3194,3.3211,3.3215,3.3218,3.3226,3.3279,3.3288,3.3196,3.3196,3.3196,0,0,3.2267,3.2332,3.2372,3.2482,3.2537,3.2607,3.2608,3.2682,3.2734,3.2769,3.286,3.2906,3.2986,3.308,3.3124,3.312,3.3256,3.3224,3.3225,3.3232,3.3285,3.3293,3.3301,3.3199,3.3199,3.3198,0,0,3.2323,3.2379,3.2448,3.2503,3.2586,3.263,3.2646,3.2734,3.2766,3.2858,3.2886,3.2949,3.3074,3.313,3.3175,3.3252,3.327,3.3274,3.3296,3.3347,3.3355,3.3361,3.3389,3.3399,3.3282,3.3282,3.3282,0,3.2327,3.2433,3.2481,3.2554,3.2602,3.2636,3.2707,3.2758,3.286,3.2892,3.2886,3.3043,3.31,3.3207,3.3226,3.3261,3.3282,3.3264,3.3349,3.3357,3.3364,3.3391,3.3401,3.3282,3.3282,3.3282,3.3282,0,3.2434,3.2506,3.2552,3.265,3.2703,3.2774,3.2834,3.2882,3.2908,3.2952,3.3046,3.3114,3.3201,3.3229,3.3255,3.334,3.3335,3.3338,3.3326,3.3372,3.3398,3.3409,3.3281,3.3282,3.3282,3.3282,0,0,3.2478,3.2601,3.2617,3.2662,3.2755,3.2813,3.2886,3.297,3.301,3.308,3.3142,3.3247,3.3251,3.3302,3.3335,3.338,3.3437,3.3378,3.3381,3.3387,3.3536,3.3533,3.3544,3.3449,3.3452,3.3453,3.3529,0,3.2546,3.2677,3.2722,3.2831,3.2899,3.2932,3.2996,3.306,3.3104,3.3169,3.3217,3.3291,3.329,3.3321,3.3367,3.342,3.3468,3.3416,3.3509,3.3512,3.3488,3.3558,3.3556,3.3624,3.354,3.3542,3.3543,0,3.2643,3.2713,3.2828,3.2913,3.2943,3.3,3.3081,3.3142,3.3216,3.3245,3.3301,3.3331,3.3409,3.3392,3.35,3.3463,3.3504,3.3536,3.354,3.3551,3.353,3.3571,3.3647,3.3657,3.356,3.3559,3.3558,0,3.2663,3.2787,3.2872,3.2909,3.301,3.3049,3.3093,3.3166,3.3214,3.3285,3.3317,3.3396,3.3439,3.35,3.3551,3.3533,3.3655,3.3642,3.3681,3.368,3.3705,3.3703,3.3789,3.3731,3.3731,3.3731,3.373,0,3.2735,3.2804,3.2882,3.2934,3.3013,3.3065,3.3141,3.3188,3.3252,3.3314,3.3348,3.3406,3.3469,3.3535,3.3575,3.3659,3.3678,3.3704,3.3713,3.3701,3.3698,3.3729,3.3725,3.3733,3.3733,3.3732,3.3732,0,3.2771,3.2827,3.2921,3.301,3.3034,3.3088,3.3164,3.3216,3.3261,3.3339,3.3361,3.3432,3.3511,3.3567,3.367,3.3696,3.3787,3.3796,3.3762,3.3767,3.3803,3.3799,3.3912,3.393,3.386,3.386,3.3861,0,3.2813,3.2867,3.2961,3.3005,3.3049,3.312,3.3168,3.3222,3.3272,3.336,3.3402,3.3483,3.3552,3.3677,3.3738,3.3817,3.3829,3.3863,3.3841,3.3826,3.383,3.3826,3.3832,3.3866,3.3867,3.3867,3.3867,0,3.2882,3.2907,3.2976,3.3055,3.3112,3.3177,3.3242,3.3276,3.3341,3.3395,3.3476,3.3529,3.3634,3.3715,3.3799,3.3845,3.3868,3.3874,3.3887,3.3875,3.3853,3.3866,3.3771,3.3871,3.3871,3.3871,3.387,3.387,3.2923,3.2973,3.3047,3.3122,3.3177,3.3237,3.329,3.3342,3.3411,3.35,3.3527,3.3612,3.3685,3.3801,3.3848,3.3916,3.3914,3.3933,3.3938,3.3942,3.3942,3.3842,3.3931,3.3931,3.3931,3.3931,3.3931,0,3.2994,3.3043,3.3112,3.3202,3.3262,3.3277,3.335,3.3399,3.3473,3.3539,3.3606,3.3699,3.3778,3.3845,3.3927,3.3968,3.398,3.3988,3.3985,3.3996,3.3939,3.3919,3.3976,3.3976,3.3976,3.3976,3.3976,3.3976,3.3037,3.3122,3.3155,3.3268,3.3317,3.34,3.344,3.3496,3.3549,3.3652,3.3718,3.3761,3.3828,3.3915,3.3988,3.4006,3.4034,3.4039,3.4059,3.4005,3.4,3.3995,3.3977,3.4045,3.4045,3.4111,3.4112,3.4112]}]]